Flag Weather past 2 weeks in Neuruppin, Brandenburg, Germany

Now
51 °F

Overcast.


Feels Like: 51 °F
Forecast: 46 / 54 °F
Wind: 1 mph from South

Location: Neuruppin

Current Time: Oct 30, 2014 at 6:01:24 PM

Latest Report: Oct 30, 2014 at 5:00 PM


Visibility: 6 mi

Pressure: 30.29 "Hg

Humidity: 89%

Dew point: 47 °F

Location of NeuruppinLocation

Historic Weather in Neuruppin — Graph

°F

Neuruppin temperature yesterday

Maximum temperature yesterday: 45 °F (at 3:00 PM)
Minimum temperature yesterday: 36 °F (at 6:00 AM)
Average temperature yesterday: 42 °F

Past Weeks' High & Low Weather Summary

 TemperatureHumidityPressure
High71 °F (Oct 19, 3:00 PM)100% (Oct 18, 9:00 AM)30.32 "Hg (Oct 18, 9:00 AM)
Low36 °F (Oct 29, 6:00 AM)68% (Oct 19, 3:00 PM)29.44 "Hg (Oct 21, 9:00 PM)
Average51 °F91%30.02 "Hg
* Reported Oct 15 6:00 PM — Oct 30 5:00 PM, Neuruppin, Weather by CustomWeather, © 2014

Note: Actual official high and low records may vary slightly from our data, if they occured in-between our weather recording intervals... More about our weather records

Advertising

Neuruppin weather history for previous 24 hours

 ConditionsComfort  
Time TempWeatherWind HumidityBarometerVisibility
5:00 PM
Oct 30
51 °FOvercast.1 mph89%30.29 "Hg6 mi
3:00 PM52 °FPartly sunny.1 mph82%30.28 "Hg6 mi
2:00 PM53 °FSunny.2 mph83%30.28 "Hg6 mi
1:00 PM53 °FOvercast.1 mph79%30.28 "Hg6 mi
12:00 PM54 °FPassing clouds.2 mph79%30.27 "Hg6 mi
11:00 AM51 °FPartly sunny.2 mph88%30.27 "Hg6 mi
9:00 AM47 °FLow clouds.1 mph96%30.26 "Hg2 mi
8:00 AM46 °FLow clouds.1 mph97%30.24 "Hg1 mi
7:00 AM46 °FLow clouds.No wind98%30.22 "Hg1 mi
6:00 AM46 °FLow clouds.1 mph98%30.21 "Hg1 mi
5:00 AM46 °FLow clouds.No wind98%30.19 "Hg1 mi
3:00 AM46 °FLow clouds.1 mph98%30.18 "Hg1 mi
2:00 AM46 °FLow clouds.1 mph97%30.17 "Hg1 mi
1:00 AM45 °FLow clouds.1 mph97%30.16 "Hg1 mi
12:00 AM45 °FLow clouds.1 mph97%30.15 "Hg1 mi
11:00 PM
Oct 29
45 °FLow clouds.1 mph97%30.14 "Hg1 mi
9:00 PM45 °FLow clouds.1 mph94%30.13 "Hg1 mi
8:00 PM45 °FLow clouds.1 mph92%30.11 "Hg3 mi
7:00 PM45 °FOvercast.1 mph89%30.11 "Hg5 mi
6:00 PM44 °FOvercast.1 mph89%30.10 "Hg4 mi
Weather by CustomWeather, © 2014

See weather overviewHow to use our weather pages